Location: Unspecified
(43.4680°N, 87.1740°E)
Time: 21:00:12
(UTC+00:00)

Nadezhda 3 Rocket - Pass Details

Date: 17 April 2021
Orbit: 956 x 1000 km, 82.9° (Epoch: 12 May)

Event Time Altitude Azimuth Distance (km) Brightness Sun altitude
Exits shadow 20:53:57 45° 187° (S) 1,334 4.3 -24.3°
Maximum altitude 20:56:07 89° 276° (W) 1,004 3.9 -24.0°
Drops below altitude 10° 21:02:30 10° 8° (N) 2,766 7.0 -23.2°
Sets 21:05:01 0° 8° (N) 3,713 7.8 -22.8°
